User: anonymous
Location: Unspecified
(0.0000°N, 0.0000°E)
Time: 16:46:32
(UTC+02:00)
Language:

YAOGAN 3 - Orbit

View from above orbital plane
View from above orbital plane
View from above satellite
View from above satellite

Ground track
Ground track

The orbit data is extracted from the following two-line orbital elements,

1 32289U 07055A   14113.20627465  .00001862  00000-0  24251-3 0  1304
2 32289 097.9365 105.6217 0001930 101.7511 258.3933 14.81808179348382
Epoch (UTC): 23 April 2014 04:57:02
Eccentricity: 0.0001930
inclination: 97.9365°
perigee height: 622 km
apogee height: 625 km
right ascension of ascending node: 105.6217°
argument of perigee: 101.7511°
revolutions per day: 14.81808179
mean anomaly at epoch: 258.3933°
orbit number at epoch: 34838

The dashed part of the orbit path shows where the satellite is in the earth's shadow,  

DLR